Location: *
(32.8140°S, 174.6161°E)
Time: 07:18:38
(UTC+00:00)

Resurs 1-4 Rocket - Pass Details

Date: 10 December 2019
Orbit: 799 x 815 km, 98.6° (Epoch: 17 January)

Event Time Altitude Azimuth Distance (km) Brightness Sun altitude
Exits shadow 12:47:41 38° 136° (SE) 1,224 3.3 -33.7°
Drops below altitude 10° 12:51:41 10° 177° (S) 2,409 5.4 -33.6°
Sets 12:54:08 0° 184° (S) 3,349 6.3 -33.5°
